[[{"header":{"parameterUnit":"m.s-1","parameterCategory":2,"la1":30.2991,"la2":30.254,"lo1":-89.0895,"lo2":-89.0444,"dy":0.0017,"dx":0.0017,"nx":28,"ny":28,"refTime":"2023-08-23T21:00:00:Z","depth":"0","parameterNumber":2,"parameterNumberName":"U-component_of_CURRENTS"},"data":[0,0,0,0,0,0,0,0,0,0,0,0,0,0,0,0,0,0,0,0,0,0,0,0,0,0,0,0,0,0,0,0,0,0,0,0,0,0,0,0,0,0,0,0,0,0,0,0,0,0,0,0,0,0,0,0,0,0,-0.1039,-0.1039,0,-0.1095,-0.1096,-0.1096,-0.1069,-0.1067,-0.1066,-0.1065,-0.1015,-0.1015,-0.1015,0,0,0,0,0,0,0,0,0,0,0,0,0,-0.0893,-0.0896,-0.1039,-0.1039,-0.104,-0.1095,-0.1096,-0.1097,-0.1069,-0.1067,-0.1066,-0.1064,-0.1015,-0.1015,-0.1015,0,0,0,0,0,0,0,0,0,0,0,0,0,-0.0953,-0.0897,-0.1038,-0.1034,-0.1035,-0.1095,-0.1096,-0.1097,-0.1069,-0.1067,-0.1065,-0.1064,-0.1015,-0.1015,-0.1015,-0.1054,0,0,-0.1015,-0.1015,0,0,0,0,0,0,0,0,-0.0949,-0.0958,-0.1034,-0.1035,-0.1035,-0.1074,-0.1027,-0.1078,-0.107,-0.1055,-0.1065,-0.1063,-0.1028,-0.1026,-0.1041,-0.1052,-0.105,-0.1015,-0.1015,-0.1015,-0.1015,0,0,0,0,0,0,0,-0.0945,-0.0955,-0.106,-0.1035,-0.1036,-0.1025,-0.1031,-0.1037,-0.1048,-0.1056,-0.1054,-0.1064,-0.1027,-0.1041,-0.1039,-0.1049,-0.1015,-0.1015,-0.1015,-0.1015,-0.1138,-0.1141,0,0,0,0,0,0,-0.0945,-0.0952,-0.1058,-0.1061,-0.0988,-0.103,-0.1036,-0.1063,-0.1051,-0.1048,-0.1065,-0.1062,-0.1042,-0.1039,-0.1037,-0.1132,-0.1015,-0.1015,-0.1014,-0.1135,-0.1139,-0.1142,0,0,0,0,0,0,-0.0942,-0.0955,-0.1056,-0.1007,-0.102,-0.1034,-0.1064,-0.1065,-0.107,-0.1059,-0.1054,-0.1068,-0.1041,-0.1037,-0.106,-0.1127,-0.1014,-0.1014,-0.1131,-0.1136,-0.1141,-0.1289,0,0,0,0,0,0,-0.0938,-0.0954,-0.0959,-0.1008,-0.1023,-0.1092,-0.1066,-0.1067,-0.108,-0.1076,-0.1061,-0.1055,-0.1039,-0.1061,-0.106,-0.1125,-0.1014,-0.1127,-0.1133,-0.1139,-0.128,-0.1298,-0.1314,0,0,0,0,0,-0.0933,-0.0953,-0.096,-0.0972,-0.1035,-0.1093,-0.11,-0.1101,-0.1082,-0.1095,-0.1097,-0.1054,-0.11,-0.1063,-0.1061,-0.1128,-0.1123,-0.1131,-0.1139,-0.1272,-0.1295,-0.1314,0,0,0,0,0,0,-0.0891,-0.0954,-0.0962,-0.0999,-0.1042,-0.1089,-0.1096,-0.1105,-0.1119,-0.1105,-0.1089,-0.1086,-0.1131,-0.1111,-0.1071,-0.1185,-0.1109,-0.1116,-0.1211,-0.1232,-0.1249,-0.123,-0.1014,0,0,0,0,0,-0.0888,-0.0914,-0.0979,-0.1003,-0.1029,-0.1064,-0.1081,-0.1092,-0.1117,-0.112,-0.112,-0.1129,-0.1168,-0.118,-0.119,-0.1249,-0.1222,-0.1294,-0.1311,-0.1326,-0.1313,-0.1401,-0.1425,-0.1167,-0.1167,-0.1167,0,0,-0.0872,-0.0912,-0.0923,-0.0994,-0.1024,-0.1081,-0.1069,-0.1103,-0.115,-0.1113,-0.116,-0.1176,-0.1193,-0.1265,-0.1285,-0.1253,-0.1377,-0.1336,-0.1348,-0.1326,-0.1411,-0.1436,-0.1459,-0.1172,-0.1171,-0.1171,0,0,-0.0866,-0.0901,-0.0925,-0.0974,-0.1031,-0.1074,-0.1087,-0.1145,-0.1168,-0.1222,-0.1228,-0.1297,-0.1312,-0.1382,-0.141,-0.1531,-0.1458,-0.1522,-0.1605,-0.1694,-0.1715,-0.1734,-0.1689,-0.1703,-0.1542,-0.1543,-0.1543,0,-0.0843,-0.0895,-0.0939,-0.0989,-0.1031,-0.1077,-0.1128,-0.1179,-0.1234,-0.1282,-0.1241,-0.1371,-0.1384,-0.1532,-0.1572,-0.1574,-0.1547,-0.1527,-0.1716,-0.1735,-0.1751,-0.1701,-0.1714,-0.1551,-0.155,-0.1549,-0.1548,0,-0.0869,-0.0913,-0.0936,-0.1022,-0.1077,-0.1126,-0.1216,-0.1269,-0.1298,-0.1362,-0.148,-0.1528,-0.1609,-0.1649,-0.1636,-0.179,-0.1702,-0.1721,-0.1661,-0.1786,-0.1724,-0.1735,-0.1562,-0.1559,-0.1557,-0.1555,0,0,-0.0816,-0.093,-0.0936,-0.0979,-0.11,-0.1145,-0.1253,-0.1377,-0.1453,-0.1528,-0.1638,-0.1755,-0.1785,-0.1819,-0.1854,-0.1932,-0.2024,-0.1865,-0.1866,-0.1811,-0.2109,-0.1972,-0.1969,-0.2073,-0.2077,-0.208,-0.2001,0,-0.0822,-0.0901,-0.0973,-0.106,-0.1116,-0.1215,-0.1311,-0.1429,-0.1525,-0.1642,-0.1761,-0.1855,-0.1855,-0.1892,-0.1992,-0.202,-0.2065,-0.2036,-0.2,-0.1996,-0.1858,-0.1985,-0.1861,-0.1775,-0.2011,-0.2012,-0.2014,0,-0.0826,-0.0883,-0.0959,-0.1085,-0.112,-0.1184,-0.135,-0.1436,-0.1637,-0.1711,-0.1866,-0.1937,-0.2093,-0.2051,-0.2182,-0.2151,-0.2125,-0.213,-0.2129,-0.1955,-0.1885,-0.1699,-0.1785,-0.1776,-0.203,-0.2028,-0.2027,0,-0.0756,-0.0875,-0.0929,-0.0973,-0.1127,-0.1181,-0.126,-0.1451,-0.1537,-0.1745,-0.1826,-0.2029,-0.2092,-0.2169,-0.2175,-0.2182,-0.2246,-0.2277,-0.2119,-0.2103,-0.1965,-0.1932,-0.2035,-0.2343,-0.2343,-0.2343,-0.2344,0,-0.0744,-0.0784,-0.089,-0.092,-0.0987,-0.1111,-0.1214,-0.1333,-0.1516,-0.1629,-0.1832,-0.1939,-0.2122,-0.2188,-0.2195,-0.2166,-0.2271,-0.2129,-0.2108,-0.2005,-0.1978,-0.1932,-0.1951,-0.234,-0.2341,-0.2342,-0.2342,0,-0.0662,-0.0738,-0.079,-0.0916,-0.0952,-0.0983,-0.1133,-0.1215,-0.1395,-0.1545,-0.1602,-0.1866,-0.1958,-0.2065,-0.2157,-0.2152,-0.2108,-0.2097,-0.1888,-0.1846,-0.1722,-0.1751,-0.1783,-0.1734,-0.1955,-0.1951,-0.1949,0,-0.0635,-0.0646,-0.0735,-0.0747,-0.0796,-0.0868,-0.0925,-0.1116,-0.1211,-0.1481,-0.1538,-0.1703,-0.1805,-0.1881,-0.1909,-0.1893,-0.1934,-0.175,-0.1791,-0.17,-0.1721,-0.1761,-0.1722,-0.1636,-0.1631,-0.1627,-0.1624,0,-0.056,-0.0571,-0.0603,-0.0623,-0.0661,-0.0726,-0.0821,-0.0882,-0.1108,-0.1235,-0.1395,-0.1493,-0.1612,-0.1612,-0.1605,-0.1592,-0.171,-0.166,-0.1684,-0.1573,-0.1513,-0.1455,-0.1612,-0.1586,-0.159,-0.1593,-0.1595,-0.1596,-0.0476,-0.0458,-0.0478,-0.0491,-0.0532,-0.0577,-0.0591,-0.0706,-0.0807,-0.0961,-0.1148,-0.1218,-0.1348,-0.1359,-0.135,-0.1304,-0.1408,-0.1294,-0.1351,-0.1411,-0.1348,-0.1347,-0.1241,-0.1243,-0.1244,-0.1245,-0.1247,0,-0.0389,-0.0369,-0.0356,-0.0376,-0.0378,-0.0446,-0.0521,-0.0525,-0.0571,-0.0673,-0.0776,-0.0872,-0.0924,-0.1037,-0.1076,-0.1032,-0.105,-0.1029,-0.1102,-0.1091,-0.118,-0.115,-0.0878,-0.0878,-0.0878,-0.0878,-0.0878,-0.0878,-0.0342,-0.0293,-0.0282,-0.0235,-0.0245,-0.0236,-0.0252,-0.0246,-0.0279,-0.0275,-0.0297,-0.0361,-0.0587,-0.0935,-0.0989,-0.0947,-0.0974,-0.0907,-0.0984,-0.1083,-0.1115,-0.1145,-0.1124,-0.0852,-0.0852,-0.0834,-0.0834,-0.0834]},{"header":{"parameterUnit":"m.s-1","parameterCategory":2,"la1":30.2991,"la2":30.254,"lo1":-89.0895,"lo2":-89.0444,"dy":0.0017,"dx":0.0017,"nx":28,"ny":28,"refTime":"2023-08-23T21:00:00:Z","depth":"0","parameterNumber":3,"parameterNumberName":"V-component_of_CURRENTS"},"data":[0,0,0,0,0,0,0,0,0,0,0,0,0,0,0,0,0,0,0,0,0,0,0,0,0,0,0,0,0,0,0,0,0,0,0,0,0,0,0,0,0,0,0,0,0,0,0,0,0,0,0,0,0,0,0,0,0,0,-0.0554,-0.0552,0,-0.0382,-0.038,-0.0379,-0.0287,-0.0287,-0.0286,-0.0286,-0.0126,-0.0123,-0.0119,0,0,0,0,0,0,0,0,0,0,0,0,0,-0.0678,-0.0677,-0.0555,-0.0552,-0.0549,-0.0382,-0.038,-0.0378,-0.0288,-0.0287,-0.0286,-0.0285,-0.0128,-0.0123,-0.0119,0,0,0,0,0,0,0,0,0,0,0,0,0,-0.0582,-0.0677,-0.0555,-0.048,-0.0471,-0.0382,-0.038,-0.0378,-0.0288,-0.0287,-0.0286,-0.0285,-0.0129,-0.0124,-0.0118,-0.0103,0,0,-0.0102,-0.0099,0,0,0,0,0,0,0,0,-0.0588,-0.0578,-0.0494,-0.0485,-0.0475,-0.0351,-0.0365,-0.0285,-0.0288,-0.0363,-0.0286,-0.0285,-0.02,-0.0189,-0.0165,-0.0095,-0.0089,-0.0101,-0.0098,-0.0095,-0.0094,0,0,0,0,0,0,0,-0.0595,-0.0584,-0.0491,-0.0491,-0.048,-0.0411,-0.0398,-0.0349,-0.0293,-0.0356,-0.0348,-0.0321,-0.0196,-0.0171,-0.0161,-0.0086,-0.0101,-0.0096,-0.0093,-0.0091,0.0038,0.0038,0,0,0,0,0,0,-0.0614,-0.0592,-0.0497,-0.0486,-0.0525,-0.041,-0.0395,-0.0396,-0.0293,-0.0275,-0.0322,-0.0317,-0.0181,-0.0167,-0.0155,-0.0135,-0.0095,-0.009,-0.0087,0.0038,0.0038,0.0038,0,0,0,0,0,0,-0.0618,-0.0608,-0.0503,-0.0529,-0.051,-0.0409,-0.041,-0.0393,-0.036,-0.0266,-0.0249,-0.0306,-0.0179,-0.0163,-0.0111,-0.0128,-0.0088,-0.0083,0.0038,0.0038,0.0038,-0.0094,0,0,0,0,0,0,-0.0623,-0.0611,-0.0614,-0.0531,-0.0509,-0.0464,-0.0409,-0.039,-0.0343,-0.0335,-0.0246,-0.0231,-0.0177,-0.0119,-0.0105,-0.012,-0.0078,0.0038,0.0038,0.0038,-0.0089,-0.0098,-0.0105,0,0,0,0,0,-0.0628,-0.0642,-0.0616,-0.0603,-0.0519,-0.0464,-0.0448,-0.0374,-0.0343,-0.0341,-0.0274,-0.0233,-0.0107,-0.0115,-0.0098,-0.0112,0.0038,0.0038,0.0038,-0.0086,-0.0096,-0.0105,0,0,0,0,0,0,-0.0688,-0.0631,-0.0601,-0.0595,-0.0537,-0.0447,-0.0424,-0.038,-0.0325,-0.0315,-0.0233,-0.0214,-0.0173,-0.012,-0.013,-0.007,-0.0027,-0.0024,-0.0127,-0.0136,-0.0144,-0.0163,-0.0074,0,0,0,0,0,-0.0706,-0.0707,-0.0632,-0.0624,-0.0599,-0.0514,-0.0479,-0.0436,-0.0372,-0.0346,-0.0285,-0.0216,-0.016,-0.0131,-0.0073,-0.0046,0.0034,-0.004,-0.0048,-0.0055,-0.0056,0.0054,0.0055,0.0039,0.0039,0.0039,0,0,-0.072,-0.069,-0.0686,-0.0637,-0.0582,-0.0567,-0.0493,-0.0451,-0.0446,-0.0339,-0.0316,-0.0242,-0.0156,-0.0123,-0.0101,-0.0083,-0.0009,-0.0055,-0.0062,-0.0059,0.0054,0.0056,0.0057,0.004,0.004,0.004,0,0,-0.0755,-0.0729,-0.074,-0.0707,-0.0641,-0.06,-0.0594,-0.0516,-0.049,-0.0452,-0.0375,-0.0311,-0.023,-0.0174,-0.0134,-0.0148,-0.0052,-0.0129,-0.019,-0.0084,-0.0082,-0.0079,0.0015,0.0027,-0.0137,-0.0137,-0.0137,0,-0.0768,-0.078,-0.073,-0.0731,-0.071,-0.0626,-0.0633,-0.0599,-0.0519,-0.0506,-0.0462,-0.0323,-0.0254,-0.0204,-0.0207,-0.0169,-0.009,-0.017,-0.0096,-0.0092,-0.0087,0.001,0.0025,-0.0144,-0.0143,-0.0142,-0.0142,0,-0.0816,-0.0816,-0.0816,-0.0804,-0.0785,-0.0772,-0.0725,-0.0705,-0.0658,-0.0619,-0.0555,-0.0441,-0.0358,-0.0326,-0.027,-0.0209,-0.016,-0.012,-0.0081,-0.0093,0.001,0.0028,-0.0153,-0.015,-0.0149,-0.0147,0,0,-0.0851,-0.0852,-0.0849,-0.0854,-0.0825,-0.081,-0.0821,-0.0799,-0.0802,-0.0715,-0.0685,-0.0582,-0.0509,-0.0455,-0.0366,-0.0272,-0.0172,-0.019,-0.0182,-0.0112,0.0065,0.0032,0.005,-0.0115,-0.0112,-0.011,0.0119,0,-0.0889,-0.0927,-0.0921,-0.0945,-0.0951,-0.0909,-0.0929,-0.0906,-0.087,-0.0826,-0.0703,-0.0639,-0.0565,-0.0507,-0.0409,-0.0199,-0.0127,-0.0237,0.0082,0.0091,0.005,0.0068,0.012,0.0322,0.0137,0.014,0.0142,0,-0.0929,-0.095,-0.0999,-0.1015,-0.1015,-0.103,-0.1039,-0.1041,-0.0987,-0.0951,-0.087,-0.077,-0.061,-0.0544,-0.0233,-0.03,-0.015,-0.0001,0.0012,0.0041,0.0091,0.031,0.0363,0.0494,0.0172,0.0169,0.0167,0,-0.0967,-0.0995,-0.1044,-0.1048,-0.1064,-0.1082,-0.1085,-0.1079,-0.1087,-0.1015,-0.0984,-0.0812,-0.0665,-0.0454,-0.017,-0.0184,0.0182,0.0204,0.0298,0.0299,0.0435,0.0441,0.0639,0.0371,0.0371,0.037,0.037,0,-0.1003,-0.1026,-0.1065,-0.1081,-0.113,-0.113,-0.1173,-0.1161,-0.1144,-0.1145,-0.1039,-0.0956,-0.0628,-0.0397,-0.0174,0.0133,0.0179,0.0295,0.0357,0.0387,0.0386,0.0579,0.0625,0.0379,0.0377,0.0375,0.0374,0,-0.1009,-0.1044,-0.1082,-0.1126,-0.1143,-0.1169,-0.1211,-0.1238,-0.1228,-0.1207,-0.1177,-0.099,-0.0668,-0.0379,0.0023,0.0145,0.0516,0.0492,0.0491,0.0545,0.0706,0.0742,0.0993,0.1084,0.0645,0.0645,0.0646,0,-0.1008,-0.1038,-0.1102,-0.1129,-0.1143,-0.119,-0.1226,-0.1259,-0.1291,-0.1224,-0.1198,-0.0926,-0.0714,-0.017,0.0155,0.0523,0.0614,0.0683,0.0635,0.0721,0.0812,0.0819,0.0878,0.0788,0.079,0.0791,0.0792,0,-0.0988,-0.102,-0.1053,-0.1119,-0.1167,-0.122,-0.1273,-0.132,-0.1348,-0.135,-0.1254,-0.1077,-0.0553,-0.0077,0.0362,0.0551,0.0771,0.0713,0.085,0.0962,0.0948,0.1062,0.0615,0.0803,0.0802,0.0801,0.0801,0.08,-0.0953,-0.0976,-0.1034,-0.1091,-0.1145,-0.1216,-0.1261,-0.1337,-0.1393,-0.1401,-0.1272,-0.104,-0.03,0.0368,0.0547,0.0942,0.0903,0.1034,0.1084,0.1091,0.1129,0.0659,0.0864,0.0863,0.0862,0.0862,0.0861,0,-0.0902,-0.0947,-0.0999,-0.107,-0.1115,-0.1162,-0.1264,-0.1314,-0.138,-0.1411,-0.1338,-0.0661,-0.0013,0.0565,0.1212,0.1332,0.1367,0.1391,0.1469,0.1523,0.1186,0.1137,0.1351,0.1351,0.1351,0.1351,0.1351,0.1351,-0.0878,-0.0918,-0.0963,-0.1021,-0.1063,-0.1124,-0.1177,-0.1268,-0.132,-0.1214,-0.0995,-0.0788,0.0236,0.1193,0.1693,0.1703,0.1861,0.1813,0.1889,0.1694,0.1666,0.1639,0.1605,0.1915,0.1915,0.224,0.2243,0.2246]}],[{"header":{"parameterUnit":"m.s-1","parameterCategory":2,"la1":30.2991,"la2":30.254,"lo1":-89.0895,"lo2":-89.0444,"dy":0.0017,"dx":0.0017,"nx":28,"ny":28,"refTime":"2023-08-23T21:00:00:Z","depth":"2","parameterNumber":2,"parameterNumberName":"U-component_of_CURRENTS"},"data":[0,0,0,0,0,0,0,0,0,0,0,0,0,0,0,0,0,0,0,0,0,0,0,0,0,0,0,0,0,0,0,0,0,0,0,0,0,0,0,0,0,0,0,0,0,0,0,0,0,0,0,0,0,0,0,0,0,0,-0.291,-0.291,0,-0.2838,-0.2837,-0.2836,-0.2774,-0.2773,-0.2773,-0.2772,-0.2676,-0.2674,-0.2672,0,0,0,0,0,0,0,0,0,0,0,0,0,-0.2911,-0.2912,-0.291,-0.291,-0.2909,-0.2838,-0.2837,-0.2835,-0.2774,-0.2773,-0.2773,-0.2772,-0.2677,-0.2674,-0.2672,0,0,0,0,0,0,0,0,0,0,0,0,0,-0.2881,-0.2912,-0.2911,-0.2871,-0.2866,-0.2838,-0.2837,-0.2835,-0.2774,-0.2773,-0.2772,-0.2772,-0.2678,-0.2675,-0.2672,-0.267,0,0,-0.2662,-0.2661,0,0,0,0,0,0,0,0,-0.2883,-0.2881,-0.2877,-0.2873,-0.2868,-0.2815,-0.2801,-0.2779,-0.2774,-0.2808,-0.2772,-0.2771,-0.2722,-0.2715,-0.2702,-0.2665,-0.2661,-0.2662,-0.266,-0.2659,-0.2658,0,0,0,0,0,0,0,-0.2885,-0.2883,-0.288,-0.2876,-0.2871,-0.2827,-0.2822,-0.2797,-0.2769,-0.2805,-0.28,-0.2795,-0.2719,-0.2705,-0.2699,-0.266,-0.2662,-0.2659,-0.2657,-0.2656,-0.2588,-0.2588,0,0,0,0,0,0,-0.2902,-0.2886,-0.2883,-0.2878,-0.2875,-0.2828,-0.2823,-0.2832,-0.277,-0.276,-0.2795,-0.2792,-0.2711,-0.2703,-0.2695,-0.27,-0.2659,-0.2656,-0.2654,-0.2588,-0.2588,-0.2588,0,0,0,0,0,0,-0.2903,-0.2903,-0.2886,-0.288,-0.2875,-0.283,-0.284,-0.2831,-0.2815,-0.2763,-0.2752,-0.2788,-0.271,-0.27,-0.2667,-0.2695,-0.2655,-0.2652,-0.2588,-0.2588,-0.2588,-0.2701,0,0,0,0,0,0,-0.2903,-0.2904,-0.2916,-0.2882,-0.2876,-0.2886,-0.2841,-0.283,-0.2813,-0.2808,-0.2754,-0.2744,-0.2708,-0.2672,-0.2664,-0.269,-0.2649,-0.2588,-0.2588,-0.2588,-0.2698,-0.2705,-0.2712,0,0,0,0,0,-0.2904,-0.2933,-0.2917,-0.2916,-0.2894,-0.2888,-0.2881,-0.2844,-0.2814,-0.2822,-0.2769,-0.2745,-0.2666,-0.267,-0.266,-0.2686,-0.2588,-0.2588,-0.2588,-0.2694,-0.2704,-0.2712,0,0,0,0,0,0,-0.2943,-0.2928,-0.291,-0.2934,-0.2917,-0.2878,-0.2879,-0.285,-0.2814,-0.2802,-0.2746,-0.2733,-0.2715,-0.2678,-0.2682,-0.2662,-0.2623,-0.2622,-0.2707,-0.2716,-0.2723,-0.2714,-0.2647,0,0,0,0,0,-0.2957,-0.2968,-0.2948,-0.2963,-0.296,-0.2918,-0.2908,-0.2884,-0.2848,-0.2832,-0.2789,-0.274,-0.2709,-0.2694,-0.2658,-0.265,-0.259,-0.2657,-0.2664,-0.2671,-0.2655,-0.2613,-0.2616,-0.2588,-0.2588,-0.2588,0,0,-0.2969,-0.2966,-0.2969,-0.297,-0.295,-0.2954,-0.291,-0.2905,-0.29,-0.2828,-0.2805,-0.2765,-0.2709,-0.2699,-0.2688,-0.2672,-0.2642,-0.2671,-0.2678,-0.2657,-0.2614,-0.2617,-0.2619,-0.2588,-0.2588,-0.2588,0,0,-0.3,-0.3005,-0.302,-0.3016,-0.3001,-0.2983,-0.2986,-0.2952,-0.2934,-0.2914,-0.2856,-0.2825,-0.278,-0.2746,-0.2723,-0.2744,-0.2679,-0.2738,-0.2774,-0.2736,-0.2738,-0.274,-0.265,-0.2643,-0.2746,-0.2746,-0.2746,0,-0.3014,-0.3029,-0.3023,-0.3037,-0.3029,-0.3001,-0.3008,-0.2998,-0.2954,-0.2932,-0.2921,-0.2834,-0.2802,-0.2771,-0.2781,-0.2764,-0.2708,-0.2756,-0.2748,-0.2748,-0.2747,-0.2655,-0.2645,-0.2752,-0.2751,-0.275,-0.275,0,-0.305,-0.3059,-0.3071,-0.3076,-0.3077,-0.3081,-0.3068,-0.3061,-0.3035,-0.3006,-0.297,-0.2923,-0.286,-0.2866,-0.2833,-0.2813,-0.2762,-0.2764,-0.2735,-0.2757,-0.2658,-0.2646,-0.2759,-0.2757,-0.2756,-0.2754,0,0,-0.3068,-0.309,-0.3089,-0.3081,-0.3092,-0.3087,-0.3104,-0.3088,-0.3064,-0.3051,-0.3007,-0.2986,-0.2942,-0.2909,-0.287,-0.2851,-0.2809,-0.2812,-0.2808,-0.2736,-0.268,-0.2583,-0.2559,-0.2818,-0.2817,-0.2817,-0.2607,0,-0.3083,-0.3108,-0.312,-0.3124,-0.3123,-0.3118,-0.3123,-0.3109,-0.3087,-0.3045,-0.3016,-0.2968,-0.2966,-0.293,-0.2914,-0.2823,-0.2783,-0.2861,-0.2655,-0.2647,-0.2571,-0.2545,-0.2397,-0.2194,-0.2595,-0.2593,-0.2591,0,-0.3092,-0.3104,-0.3116,-0.3112,-0.3111,-0.3118,-0.3093,-0.3096,-0.3061,-0.3042,-0.301,-0.2964,-0.2915,-0.2919,-0.2794,-0.2842,-0.2762,-0.2708,-0.2699,-0.2556,-0.2528,-0.2236,-0.2156,-0.257,-0.2571,-0.2573,-0.2574,0,-0.3059,-0.3087,-0.3088,-0.309,-0.3097,-0.3094,-0.3101,-0.3083,-0.3048,-0.303,-0.298,-0.2942,-0.2864,-0.2814,-0.2699,-0.2741,-0.2542,-0.2584,-0.2414,-0.2404,-0.2207,-0.2182,-0.2492,-0.2492,-0.2493,-0.2493,-0.2494,0,-0.304,-0.3032,-0.3069,-0.3059,-0.3032,-0.3068,-0.3026,-0.3033,-0.3004,-0.2925,-0.2959,-0.2867,-0.2835,-0.2716,-0.2663,-0.2469,-0.2504,-0.2387,-0.2344,-0.2239,-0.222,-0.2498,-0.2501,-0.2485,-0.2487,-0.2489,-0.249,0,-0.296,-0.3002,-0.2982,-0.3005,-0.3003,-0.2977,-0.2959,-0.2921,-0.2934,-0.2827,-0.2815,-0.276,-0.2614,-0.2549,-0.2411,-0.2364,-0.2244,-0.2168,-0.202,-0.1965,-0.2138,-0.2149,-0.1958,-0.1952,-0.1948,-0.1944,-0.1941,0,-0.2911,-0.2898,-0.2907,-0.289,-0.2889,-0.2868,-0.2836,-0.2862,-0.281,-0.2732,-0.2652,-0.2524,-0.2363,-0.2141,-0.206,-0.1915,-0.2035,-0.1715,-0.1793,-0.2105,-0.2083,-0.2102,-0.2119,-0.1556,-0.155,-0.1545,-0.1541,0,-0.2784,-0.2793,-0.2775,-0.2746,-0.2718,-0.2679,-0.2647,-0.2591,-0.2582,-0.247,-0.2308,-0.2192,-0.201,-0.1789,-0.1651,-0.1577,-0.1747,-0.161,-0.1938,-0.1739,-0.1716,-0.17,-0.1731,-0.1498,-0.1502,-0.1505,-0.1508,-0.1509,-0.2657,-0.2615,-0.2601,-0.2555,-0.253,-0.2464,-0.2387,-0.2324,-0.2171,-0.1965,-0.1972,-0.1737,-0.1714,-0.1403,-0.1305,-0.126,-0.1392,-0.1363,-0.1382,-0.1406,-0.1422,-0.1395,-0.1115,-0.1117,-0.1119,-0.112,-0.1122,0,-0.2465,-0.245,-0.2413,-0.2346,-0.2268,-0.2321,-0.2221,-0.2074,-0.1826,-0.1667,-0.1474,-0.1248,-0.1086,-0.1087,-0.0946,-0.0925,-0.0964,-0.0894,-0.096,-0.1001,-0.1038,-0.1042,-0.063,-0.0629,-0.0628,-0.0627,0,0,-0.2357,-0.2262,-0.2252,-0.2084,-0.206,-0.1905,-0.1832,-0.16,-0.1436,-0.1096,-0.0954,-0.0958,-0.1014,-0.0814,-0.0774,-0.0675,-0.0831,-0.0634,-0.1022,-0.1135,-0.1171,-0.1293,-0.1341,0,0,0,0,0]},{"header":{"parameterUnit":"m.s-1","parameterCategory":2,"la1":30.2991,"la2":30.254,"lo1":-89.0895,"lo2":-89.0444,"dy":0.0017,"dx":0.0017,"nx":28,"ny":28,"refTime":"2023-08-23T21:00:00:Z","depth":"2","parameterNumber":3,"parameterNumberName":"V-component_of_CURRENTS"},"data":[0,0,0,0,0,0,0,0,0,0,0,0,0,0,0,0,0,0,0,0,0,0,0,0,0,0,0,0,0,0,0,0,0,0,0,0,0,0,0,0,0,0,0,0,0,0,0,0,0,0,0,0,0,0,0,0,0,0,0.0493,0.0494,0,0.0576,0.0577,0.0577,0.0587,0.0586,0.0585,0.0585,0.0665,0.0668,0.067,0,0,0,0,0,0,0,0,0,0,0,0,0,0.0385,0.0387,0.0493,0.0494,0.0495,0.0576,0.0577,0.0577,0.0587,0.0586,0.0585,0.0585,0.0664,0.0667,0.0671,0,0,0,0,0,0,0,0,0,0,0,0,0,0.0444,0.0387,0.0492,0.0512,0.0514,0.0576,0.0577,0.0578,0.0587,0.0586,0.0585,0.0584,0.0663,0.0667,0.0671,0.0713,0,0,0.0683,0.0685,0,0,0,0,0,0,0,0,0.044,0.0447,0.0508,0.0511,0.0514,0.0572,0.0568,0.0624,0.0587,0.0556,0.0585,0.0584,0.0636,0.0643,0.0656,0.0717,0.072,0.0684,0.0686,0.0688,0.0689,0,0,0,0,0,0,0,0.0436,0.0444,0.0523,0.0509,0.0513,0.0531,0.0538,0.0579,0.0598,0.0559,0.0561,0.0575,0.0637,0.0652,0.0658,0.0721,0.0683,0.0687,0.069,0.0691,0.0802,0.0802,0,0,0,0,0,0,0.0431,0.044,0.052,0.0525,0.0477,0.0534,0.0541,0.0552,0.0598,0.0605,0.0575,0.0575,0.0646,0.0653,0.0661,0.0686,0.0688,0.0691,0.0694,0.0801,0.0802,0.0803,0,0,0,0,0,0,0.0428,0.0437,0.0517,0.0487,0.0499,0.0537,0.0549,0.0554,0.0557,0.0611,0.0617,0.0571,0.0645,0.0655,0.0693,0.069,0.0693,0.0697,0.0801,0.0801,0.0802,0.0755,0,0,0,0,0,0,0.0424,0.0435,0.0432,0.0487,0.05,0.0545,0.055,0.0557,0.057,0.0569,0.061,0.0617,0.0645,0.0687,0.0697,0.0696,0.07,0.08,0.0801,0.0802,0.0756,0.0754,0.0752,0,0,0,0,0,0.042,0.0419,0.0431,0.0441,0.0497,0.0546,0.0554,0.0577,0.057,0.0574,0.0603,0.0615,0.07,0.0691,0.0703,0.0703,0.0799,0.0801,0.0802,0.0756,0.0754,0.0752,0,0,0,0,0,0,0.0366,0.0422,0.0436,0.045,0.0493,0.0548,0.055,0.057,0.0596,0.0587,0.0628,0.0639,0.067,0.0698,0.0687,0.0739,0.075,0.0754,0.0712,0.071,0.0708,0.0681,0.0703,0,0,0,0,0,0.0356,0.0366,0.0429,0.0437,0.0455,0.05,0.0517,0.0537,0.0574,0.0583,0.0616,0.065,0.0688,0.0706,0.0744,0.0777,0.0791,0.0784,0.0782,0.078,0.0767,0.0793,0.0792,0.0807,0.0807,0.0806,0,0,0.0336,0.0368,0.0372,0.0425,0.0453,0.0479,0.0506,0.0529,0.0547,0.059,0.061,0.0647,0.0697,0.073,0.0746,0.075,0.0785,0.0782,0.0779,0.0768,0.0794,0.0793,0.0791,0.0807,0.0807,0.0807,0,0,0.03,0.0329,0.0326,0.0362,0.0409,0.0449,0.0453,0.0508,0.0524,0.0565,0.0593,0.0628,0.0689,0.072,0.0745,0.076,0.0776,0.0771,0.0739,0.0765,0.0763,0.0762,0.0776,0.0776,0.0768,0.0768,0.0768,0,0.0268,0.0278,0.0332,0.0345,0.0365,0.0432,0.0437,0.0476,0.0535,0.0546,0.0563,0.0643,0.0685,0.072,0.0724,0.0754,0.0765,0.0739,0.076,0.0759,0.0759,0.0773,0.0774,0.0766,0.0766,0.0766,0.0767,0,0.024,0.0246,0.0247,0.0286,0.0322,0.0335,0.0408,0.0434,0.0467,0.0506,0.0547,0.0612,0.0649,0.0677,0.0707,0.0724,0.0731,0.0754,0.0757,0.0754,0.077,0.0772,0.0763,0.0764,0.0764,0.0765,0,0,0.0155,0.0212,0.0207,0.021,0.0287,0.0309,0.0349,0.0399,0.0407,0.0475,0.0488,0.0563,0.0585,0.0614,0.0658,0.0688,0.0701,0.0711,0.0713,0.071,0.0742,0.0701,0.0699,0.0721,0.0721,0.0722,0.0753,0,0.0103,0.0101,0.0155,0.0153,0.0157,0.0237,0.0269,0.0326,0.0381,0.0417,0.0488,0.0519,0.0567,0.0576,0.0615,0.0688,0.0703,0.0689,0.0758,0.076,0.0712,0.0699,0.0691,0.0714,0.0755,0.0756,0.0756,0,0.0042,0.0052,0.0034,0.0076,0.0085,0.0096,0.0146,0.0186,0.027,0.0312,0.0363,0.0426,0.0486,0.0523,0.0624,0.0609,0.0657,0.0713,0.0716,0.0691,0.0721,0.0728,0.0716,0.0759,0.0759,0.0759,0.0758,0,-0.0066,-0.004,-0.0064,-0.005,0.0018,0.0011,0.0046,0.0127,0.0161,0.0227,0.0263,0.0345,0.0389,0.0469,0.0576,0.0599,0.0678,0.0731,0.0733,0.0731,0.0744,0.0742,0.0771,0.0771,0.0771,0.0771,0.0771,0,-0.0151,-0.0171,-0.013,-0.0146,-0.0174,-0.0095,-0.0107,-0.0052,0.0029,0.0072,0.0178,0.0226,0.0377,0.0453,0.0545,0.0629,0.0647,0.0713,0.0732,0.0728,0.0724,0.0782,0.0782,0.0772,0.0772,0.0772,0.0772,0,-0.0265,-0.0238,-0.0264,-0.0231,-0.0232,-0.0256,-0.0202,-0.0186,-0.0106,-0.0044,-0.0024,0.0133,0.0233,0.0361,0.0496,0.058,0.0668,0.068,0.0653,0.0666,0.072,0.0718,0.0719,0.0718,0.0717,0.0716,0.0715,0,-0.0317,-0.0348,-0.0348,-0.0369,-0.0368,-0.0383,-0.0373,-0.0283,-0.0234,-0.0096,-0.0057,0.0046,0.0126,0.0293,0.0456,0.0583,0.0601,0.0635,0.0682,0.0694,0.0713,0.0713,0.0712,0.0692,0.0691,0.0691,0.069,0,-0.041,-0.042,-0.0435,-0.0479,-0.0499,-0.0493,-0.0466,-0.0441,-0.0305,-0.0267,-0.0178,-0.0122,0.0085,0.0245,0.0409,0.049,0.0622,0.0623,0.0648,0.069,0.0667,0.0686,0.0687,0.0684,0.0684,0.0685,0.0685,0.0685,-0.0474,-0.0508,-0.0531,-0.0573,-0.0593,-0.0582,-0.0575,-0.052,-0.0483,-0.0354,-0.0286,-0.0169,0.0032,0.0279,0.0406,0.0556,0.0575,0.0635,0.0639,0.0643,0.0617,0.0591,0.0589,0.059,0.059,0.059,0.059,0,-0.0521,-0.0557,-0.0607,-0.0636,-0.0659,-0.0657,-0.0604,-0.0574,-0.0549,-0.0411,-0.035,-0.0163,0.0028,0.0237,0.0485,0.0605,0.063,0.0605,0.0641,0.0646,0.065,0.0627,0.0601,0.0602,0.0602,0.0602,0,0,-0.0543,-0.0594,-0.0615,-0.0675,-0.0706,-0.0704,-0.0678,-0.0656,-0.0547,-0.0458,-0.0335,-0.0179,0.0072,0.0237,0.0393,0.0523,0.055,0.0519,0.0498,0.0526,0.053,0.0653,0.062,0,0,0,0,0]}],[{"header":{"parameterUnit":"m.s-1","parameterCategory":2,"la1":30.2991,"la2":30.254,"lo1":-89.0895,"lo2":-89.0444,"dy":0.0017,"dx":0.0017,"nx":28,"ny":28,"refTime":"2023-08-23T21:00:00:Z","depth":"4","parameterNumber":2,"parameterNumberName":"U-component_of_CURRENTS"},"data":[0,0,0,0,0,0,0,0,0,0,0,0,0,0,0,0,0,0,0,0,0,0,0,0,0,0,0,0,0,0,0,0,0,0,0,0,0,0,0,0,0,0,0,0,0,0,0,0,0,0,0,0,0,0,0,0,0,0,-0.0999,-0.1,0,-0.1112,-0.1113,-0.1115,-0.116,-0.1159,-0.1159,-0.1158,-0.1196,-0.1197,-0.1199,0,0,0,0,0,0,0,0,0,0,0,0,0,-0.092,-0.0921,-0.0999,-0.1,-0.1001,-0.1111,-0.1113,-0.1115,-0.116,-0.1159,-0.1159,-0.1158,-0.1195,-0.1197,-0.1199,0,0,0,0,0,0,0,0,0,0,0,0,0,-0.0989,-0.0921,-0.0998,-0.1034,-0.1038,-0.1111,-0.1113,-0.1116,-0.116,-0.1159,-0.1158,-0.1158,-0.1194,-0.1197,-0.1199,-0.1231,0,0,-0.1206,-0.1207,0,0,0,0,0,0,0,0,-0.0985,-0.0992,-0.1028,-0.1032,-0.1036,-0.1118,-0.1099,-0.1149,-0.116,-0.1118,-0.1158,-0.1157,-0.1161,-0.1166,-0.1195,-0.1233,-0.1234,-0.1206,-0.1208,-0.1209,-0.1209,0,0,0,0,0,0,0,-0.098,-0.0988,-0.1047,-0.1029,-0.1034,-0.1078,-0.1086,-0.111,-0.1144,-0.1121,-0.1124,-0.1131,-0.1163,-0.1193,-0.1196,-0.1235,-0.1206,-0.1208,-0.121,-0.1211,-0.1382,-0.1385,0,0,0,0,0,0,-0.0955,-0.0983,-0.1043,-0.105,-0.1004,-0.1079,-0.1089,-0.1095,-0.1146,-0.1152,-0.1132,-0.1133,-0.1189,-0.1193,-0.1197,-0.1294,-0.1209,-0.1211,-0.1212,-0.1379,-0.1383,-0.1386,0,0,0,0,0,0,-0.0953,-0.0959,-0.1039,-0.1016,-0.1029,-0.108,-0.1088,-0.1098,-0.1152,-0.1154,-0.1159,-0.1178,-0.1189,-0.1194,-0.1243,-0.1293,-0.1212,-0.1214,-0.1375,-0.138,-0.1385,-0.145,0,0,0,0,0,0,-0.095,-0.0958,-0.0985,-0.1014,-0.1029,-0.1092,-0.1089,-0.1101,-0.1154,-0.1158,-0.1195,-0.1196,-0.1189,-0.124,-0.1245,-0.1294,-0.1216,-0.1371,-0.1378,-0.1383,-0.1444,-0.1456,-0.1467,0,0,0,0,0,-0.0947,-0.0977,-0.0986,-0.0994,-0.1054,-0.1093,-0.1106,-0.1141,-0.1158,-0.1187,-0.1216,-0.1196,-0.1282,-0.1244,-0.125,-0.1301,-0.1368,-0.1376,-0.1383,-0.1439,-0.1454,-0.1467,0,0,0,0,0,0,-0.0949,-0.0985,-0.0995,-0.1033,-0.1064,-0.1099,-0.114,-0.1163,-0.1215,-0.1224,-0.1228,-0.1233,-0.1302,-0.1298,-0.1256,-0.1373,-0.1326,-0.1335,-0.1367,-0.1381,-0.1393,-0.1387,-0.1218,0,0,0,0,0,-0.0962,-0.0996,-0.1025,-0.1054,-0.1076,-0.1117,-0.1149,-0.1167,-0.1202,-0.1227,-0.125,-0.1287,-0.1337,-0.1352,-0.1389,-0.1441,-0.1401,-0.1484,-0.1496,-0.1505,-0.1509,-0.1503,-0.1513,-0.141,-0.141,-0.141,0,0,-0.0971,-0.0993,-0.1015,-0.1059,-0.1091,-0.1122,-0.1136,-0.1183,-0.122,-0.1221,-0.1291,-0.1331,-0.1365,-0.1431,-0.1462,-0.1429,-0.151,-0.1514,-0.1522,-0.152,-0.1511,-0.152,-0.1529,-0.1415,-0.1414,-0.1413,0,0,-0.0984,-0.1025,-0.1055,-0.1083,-0.1128,-0.1153,-0.1171,-0.1221,-0.1264,-0.1327,-0.1353,-0.1397,-0.1478,-0.1493,-0.1516,-0.161,-0.1581,-0.1666,-0.1707,-0.1702,-0.1709,-0.1715,-0.1646,-0.1645,-0.1661,-0.1661,-0.1661,0,-0.0998,-0.1026,-0.107,-0.1096,-0.1118,-0.1166,-0.119,-0.1247,-0.1308,-0.1354,-0.1352,-0.149,-0.149,-0.1578,-0.1623,-0.1628,-0.1629,-0.1644,-0.1712,-0.1718,-0.1722,-0.1651,-0.1649,-0.1665,-0.1665,-0.1664,-0.1664,0,-0.1014,-0.1051,-0.1071,-0.1116,-0.115,-0.1182,-0.1239,-0.1304,-0.1358,-0.1409,-0.1522,-0.1544,-0.1615,-0.1645,-0.1666,-0.1742,-0.1731,-0.173,-0.1663,-0.1736,-0.1656,-0.1653,-0.1671,-0.1669,-0.1668,-0.1667,0,0,-0.1002,-0.1071,-0.108,-0.1101,-0.1162,-0.1185,-0.1267,-0.1352,-0.1416,-0.1501,-0.1553,-0.1671,-0.1709,-0.174,-0.1776,-0.1782,-0.1787,-0.1801,-0.1798,-0.1707,-0.177,-0.1691,-0.1679,-0.1838,-0.1839,-0.184,-0.1687,0,-0.1003,-0.1042,-0.108,-0.1124,-0.1149,-0.1218,-0.128,-0.1367,-0.1455,-0.1518,-0.1588,-0.1655,-0.1743,-0.177,-0.1811,-0.179,-0.1793,-0.1827,-0.1735,-0.173,-0.1632,-0.1677,-0.1842,-0.1684,-0.1683,-0.1682,-0.1682,0,-0.0998,-0.1026,-0.1062,-0.1126,-0.1145,-0.1196,-0.1304,-0.1365,-0.1485,-0.1547,-0.1659,-0.1701,-0.1751,-0.1775,-0.1813,-0.1859,-0.1841,-0.1813,-0.1806,-0.1709,-0.1648,-0.1608,-0.1675,-0.1676,-0.1676,-0.1677,-0.1677,0,-0.0947,-0.1013,-0.1039,-0.1059,-0.114,-0.1204,-0.1271,-0.1401,-0.1435,-0.1565,-0.1574,-0.1695,-0.1693,-0.1739,-0.1754,-0.1788,-0.1741,-0.1735,-0.1642,-0.1632,-0.1713,-0.1708,-0.1744,-0.1744,-0.1744,-0.1745,-0.1745,0,-0.0917,-0.0945,-0.1037,-0.1053,-0.1096,-0.1183,-0.1266,-0.1355,-0.1429,-0.1461,-0.1594,-0.1614,-0.1703,-0.1704,-0.1723,-0.1681,-0.1718,-0.1646,-0.1603,-0.1741,-0.1742,-0.1707,-0.1704,-0.1739,-0.174,-0.1741,-0.1742,0,-0.086,-0.091,-0.0944,-0.1046,-0.1071,-0.1118,-0.1214,-0.1255,-0.1373,-0.1392,-0.1406,-0.1513,-0.1553,-0.1602,-0.1604,-0.1597,-0.1557,-0.1536,-0.1644,-0.1609,-0.144,-0.1444,-0.1358,-0.1354,-0.1351,-0.1349,-0.1347,0,-0.0836,-0.0847,-0.0917,-0.0918,-0.0977,-0.1059,-0.1082,-0.1205,-0.1247,-0.1344,-0.1314,-0.1368,-0.1452,-0.1373,-0.1466,-0.1441,-0.1468,-0.1402,-0.1475,-0.1442,-0.1408,-0.1417,-0.1424,-0.1342,-0.1341,-0.134,-0.1339,0,-0.0782,-0.0813,-0.0834,-0.0842,-0.0872,-0.0885,-0.097,-0.0965,-0.1098,-0.1174,-0.1211,-0.1234,-0.1262,-0.1313,-0.1317,-0.132,-0.1414,-0.1369,-0.1376,-0.1444,-0.1421,-0.1392,-0.1403,-0.1328,-0.133,-0.1331,-0.1331,0,-0.0739,-0.0735,-0.0756,-0.0756,-0.0757,-0.0736,-0.0796,-0.0857,-0.089,-0.1028,-0.1041,-0.1145,-0.1247,-0.1247,-0.1255,-0.1249,-0.1236,-0.1197,-0.1212,-0.1225,-0.1268,-0.1224,-0.1028,0,0,0,0,0,-0.0687,-0.0666,-0.0659,-0.0649,-0.0644,-0.0649,-0.0704,-0.0776,-0.0903,-0.0885,-0.0971,-0.1016,-0.1057,-0.1116,-0.1083,-0.1174,-0.1221,-0.1128,-0.1178,-0.1268,-0.1281,-0.1353,0,0,0,0,0,0,-0.0644,-0.0638,-0.0632,-0.0557,-0.0527,-0.0516,-0.0544,-0.0622,-0.0663,-0.0799,-0.0837,-0.0939,-0.1,-0.106,-0.1059,-0.1071,-0.1078,-0.1197,-0.1193,-0.1261,-0.1272,-0.1283,-0.1361,0,0,0,0,0]},{"header":{"parameterUnit":"m.s-1","parameterCategory":2,"la1":30.2991,"la2":30.254,"lo1":-89.0895,"lo2":-89.0444,"dy":0.0017,"dx":0.0017,"nx":28,"ny":28,"refTime":"2023-08-23T21:00:00:Z","depth":"4","parameterNumber":3,"parameterNumberName":"V-component_of_CURRENTS"},"data":[0,0,0,0,0,0,0,0,0,0,0,0,0,0,0,0,0,0,0,0,0,0,0,0,0,0,0,0,0,0,0,0,0,0,0,0,0,0,0,0,0,0,0,0,0,0,0,0,0,0,0,0,0,0,0,0,0,0,-0.0238,-0.0238,0,-0.0232,-0.0232,-0.0233,-0.0231,-0.0231,-0.023,-0.023,-0.0221,-0.0221,-0.0221,0,0,0,0,0,0,0,0,0,0,0,0,0,-0.0235,-0.0235,-0.0238,-0.0238,-0.0237,-0.0232,-0.0232,-0.0233,-0.0231,-0.0231,-0.023,-0.0229,-0.0221,-0.0221,-0.0221,0,0,0,0,0,0,0,0,0,0,0,0,0,-0.0238,-0.0235,-0.0238,-0.0232,-0.0231,-0.0232,-0.0232,-0.0233,-0.0231,-0.0231,-0.023,-0.0229,-0.0221,-0.0221,-0.0222,-0.0238,0,0,-0.0222,-0.0223,0,0,0,0,0,0,0,0,-0.0238,-0.0239,-0.0233,-0.0232,-0.0231,-0.0227,-0.0227,-0.0232,-0.0231,-0.0237,-0.023,-0.0229,-0.022,-0.022,-0.0228,-0.0237,-0.0237,-0.0223,-0.0223,-0.0223,-0.0223,0,0,0,0,0,0,0,-0.0238,-0.0239,-0.0242,-0.0232,-0.0231,-0.0223,-0.0224,-0.0229,-0.0237,-0.0236,-0.0235,-0.0225,-0.022,-0.0228,-0.0228,-0.0237,-0.0223,-0.0223,-0.0223,-0.0223,-0.0246,-0.0246,0,0,0,0,0,0,-0.0229,-0.0239,-0.0242,-0.0241,-0.0226,-0.0224,-0.0224,-0.0233,-0.0237,-0.0235,-0.0226,-0.0225,-0.0228,-0.0228,-0.0228,-0.0243,-0.0223,-0.0223,-0.0223,-0.0245,-0.0246,-0.0246,0,0,0,0,0,0,-0.023,-0.023,-0.0242,-0.0234,-0.0234,-0.0224,-0.0234,-0.0233,-0.0238,-0.0228,-0.0227,-0.023,-0.0227,-0.0227,-0.0243,-0.0243,-0.0223,-0.0224,-0.0245,-0.0245,-0.0246,-0.0276,0,0,0,0,0,0,-0.023,-0.0231,-0.0232,-0.0234,-0.0234,-0.0246,-0.0234,-0.0234,-0.0231,-0.023,-0.0231,-0.023,-0.0227,-0.0242,-0.0243,-0.0243,-0.0224,-0.0244,-0.0245,-0.0246,-0.0275,-0.0278,-0.0281,0,0,0,0,0,-0.023,-0.024,-0.0233,-0.0233,-0.0238,-0.0246,-0.0247,-0.024,-0.0232,-0.0241,-0.0246,-0.023,-0.0247,-0.0244,-0.0244,-0.0244,-0.0244,-0.0245,-0.0246,-0.0274,-0.0277,-0.0281,0,0,0,0,0,0,-0.0244,-0.024,-0.0233,-0.0242,-0.0242,-0.0244,-0.0249,-0.0242,-0.0254,-0.0253,-0.0246,-0.0246,-0.0261,-0.0249,-0.0246,-0.0252,-0.0238,-0.0239,-0.0259,-0.0263,-0.0265,-0.0269,-0.0224,0,0,0,0,0,-0.0245,-0.025,-0.0246,-0.0253,-0.0256,-0.0252,-0.0252,-0.0248,-0.0255,-0.0259,-0.0262,-0.0262,-0.0266,-0.0262,-0.0272,-0.0276,-0.0253,-0.0272,-0.0275,-0.0277,-0.0281,-0.0268,-0.027,-0.0249,-0.0249,-0.0249,0,0,-0.0253,-0.0248,-0.0252,-0.0255,-0.0258,-0.0274,-0.0253,-0.0259,-0.0275,-0.0256,-0.0288,-0.0282,-0.0274,-0.0286,-0.0289,-0.0273,-0.0265,-0.0279,-0.0281,-0.0283,-0.0269,-0.0271,-0.0273,-0.025,-0.025,-0.0249,0,0,-0.0275,-0.027,-0.0284,-0.0291,-0.0287,-0.0285,-0.0286,-0.0294,-0.0302,-0.033,-0.0314,-0.0325,-0.0329,-0.0329,-0.0326,-0.0353,-0.0292,-0.0323,-0.0329,-0.0317,-0.0319,-0.032,-0.0267,-0.0263,-0.0312,-0.0312,-0.0312,0,-0.0282,-0.0299,-0.029,-0.0309,-0.0318,-0.0294,-0.032,-0.0327,-0.0338,-0.034,-0.0348,-0.0353,-0.0365,-0.0357,-0.0363,-0.0364,-0.0309,-0.0317,-0.0321,-0.0322,-0.0323,-0.0268,-0.0263,-0.0313,-0.0313,-0.0313,-0.0313,0,-0.0317,-0.0333,-0.0345,-0.0361,-0.0373,-0.0387,-0.0393,-0.0401,-0.0406,-0.0402,-0.0411,-0.0425,-0.0419,-0.0416,-0.0402,-0.0387,-0.0329,-0.0337,-0.0312,-0.0327,-0.0267,-0.0262,-0.0316,-0.0315,-0.0315,-0.0314,0,0,-0.0329,-0.0362,-0.0365,-0.0388,-0.0401,-0.0417,-0.0442,-0.0449,-0.0456,-0.0462,-0.0473,-0.0489,-0.0459,-0.0454,-0.0422,-0.0406,-0.0378,-0.0353,-0.0352,-0.0299,-0.0285,-0.0221,-0.0209,-0.0355,-0.0355,-0.0355,-0.0231,0,-0.0357,-0.0399,-0.0411,-0.046,-0.0488,-0.0487,-0.0514,-0.0516,-0.0518,-0.052,-0.0502,-0.0509,-0.0478,-0.0469,-0.0445,-0.0408,-0.0366,-0.0407,-0.028,-0.0276,-0.0218,-0.0204,-0.0355,-0.0227,-0.0226,-0.0225,-0.0224,0,-0.0389,-0.0409,-0.0462,-0.0512,-0.0526,-0.0553,-0.0578,-0.0599,-0.0582,-0.0586,-0.0556,-0.0525,-0.0496,-0.0486,-0.0401,-0.0405,-0.0341,-0.0307,-0.0302,-0.0231,-0.0204,-0.0216,-0.0214,-0.0215,-0.0216,-0.0216,-0.0217,0,-0.0398,-0.0451,-0.049,-0.0508,-0.0555,-0.0584,-0.0606,-0.0612,-0.0629,-0.0612,-0.0606,-0.0553,-0.0532,-0.0462,-0.036,-0.0374,-0.0246,-0.0279,-0.0149,-0.0142,-0.0224,-0.0224,-0.0215,-0.0215,-0.0216,-0.0216,-0.0216,0,-0.0421,-0.0456,-0.0499,-0.0523,-0.0577,-0.0609,-0.0651,-0.0667,-0.0673,-0.0669,-0.0625,-0.0591,-0.052,-0.0421,-0.0346,-0.0202,-0.0231,-0.014,-0.0112,-0.0235,-0.0238,-0.0218,-0.022,-0.0211,-0.0212,-0.0213,-0.0214,0,-0.043,-0.0455,-0.0508,-0.0562,-0.0588,-0.0627,-0.0688,-0.0704,-0.0709,-0.0701,-0.0692,-0.0613,-0.048,-0.0363,-0.0244,-0.0182,-0.0075,-0.0006,-0.0094,-0.0075,0.0017,0.0012,0.0107,0.011,0.0113,0.0115,0.0117,0,-0.0438,-0.0464,-0.0533,-0.0568,-0.06,-0.0654,-0.0687,-0.0723,-0.073,-0.0695,-0.0678,-0.0552,-0.0469,-0.0228,-0.0135,0.0043,0.0064,0.0115,0.0011,0.003,0.0047,0.0038,0.0029,0.0121,0.0122,0.0122,0.0123,0,-0.0452,-0.0475,-0.0513,-0.0575,-0.0626,-0.0676,-0.072,-0.0727,-0.0735,-0.0734,-0.0632,-0.0513,-0.0338,-0.019,-0.0014,0.0094,0.0055,0.0142,0.0135,0.0037,0.0048,0.0061,0.0049,0.0132,0.0131,0.013,0.013,0,-0.0459,-0.0485,-0.0529,-0.0583,-0.0644,-0.068,-0.0706,-0.0693,-0.0699,-0.0657,-0.061,-0.0446,-0.0361,-0.0156,-0.001,0.0123,0.011,0.0094,0.0089,0.008,0.0025,0.0031,0.0145,0,0,0,0,0,-0.0461,-0.0484,-0.0534,-0.0593,-0.0646,-0.0678,-0.0717,-0.0727,-0.072,-0.0642,-0.063,-0.046,-0.0241,-0.0149,-0.0003,0.001,0.012,0.0178,0.0095,0.0184,0.0173,0.0117,0,0,0,0,0,0,-0.0465,-0.0504,-0.0524,-0.0578,-0.0617,-0.0671,-0.0695,-0.0695,-0.0644,-0.0618,-0.0485,-0.0443,-0.0214,-0.0305,0.0,0.0037,-0.0006,0.0279,0.0281,0.019,0.018,0.0171,0.011,0,0,0,0,0]}]]